Back to catalog

THORAD DELTA 1 DEB

AliveLEO
NORAD 8560·DEBRIS·🇺🇸 United States

Launched Nov 15, 1974 from Vandenberg Space Force Base

Loading…

Next Passes (next 24 hours)

TLE

FreshSource: Space-Track

Epoch: Sep 14, 2026, 07:14 UTC

1 08560U 74089CX  26257.30138993  .00000279  00000-0  43802-3 0  9993
2 08560 102.1173 211.0625 0402248 134.2814 229.2050 13.32831467505633

Track THORAD DELTA 1 DEB in real time with AllMySat

Download on the App Store